Regional Weather Roundup
Issued by NWS State College, PA

Home | Current Version | Previous Version | Graphics & Text | Print | Product List | Glossary On
Versions: 1 2 3 4 5 6 7 8 9 10 11 12 13 14 15 16 17 18 19 20 21 22 23 24 25 26 27 28 29 30 31 32 33 34 35 36 37 38 39 40 41 42 43 44 45 46 47 48 49 50
000
ASUS41 KCTP 230110
RWRCTP

REGIONAL WEATHER ROUNDUP
NATIONAL WEATHER SERVICE STATE COLLEGE PA
900 PM EDT FRI MAY 22 2015

Note: "fair" indicates few or no clouds below 12,000 feet with no
significant weather and/or obstructions to visibility.

* = STATION THAT DOES NOT REPORT PRECIPITATION /E.G. RAIN...SNOW...ETC/
    THUNDER OR FOG.

PAZ002>004-007>009-013>016-020>023-029>032-230200-
WESTERN PENNSYLVANIA

CITY           SKY/WX    TMP DP  RH WIND       PRES   REMARKS
ERIE           CLEAR     52  29  41 CALM      30.27S
MEADVILLE      CLEAR     47  21  35 CALM      30.28R
FRANKLIN*      CLEAR     46  16  29 NW3       30.29S
NEW CASTLE     FAIR      51  28  41 N8        30.29R
BEAVER COUNTY  CLEAR     54  32  43 N8        30.27R
BUTLER*        CLEAR     52  30  43 NE8       30.29R
PITTSBURGH INT PTCLDY    57  29  34 N10       30.26R
PITTSBURGH     CLEAR     55  25  31 N9        30.25R
INDIANA*       CLEAR     54  32  43 NW8G17    30.28R
LATROBE        NOT AVBL
WASHINGTON CO* CLEAR     55  28  35 N7        30.27R
$$

PAZ004>006-010>012-017>019-024>028-033>037-041-042-045-046-049>053-230200-
CENTRAL PENNSYLVANIA

CITY           SKY/WX    TMP DP  RH WIND       PRES   REMARKS
BRADFORD       CLEAR     46  19  34 NW14      30.23R
DUBOIS         CLEAR     50  27  40 NW10      30.24R
CLEARFIELD     CLEAR     53  30  41 NW8       30.23R
JOHNSTOWN      CLEAR     51  26  37 NW12      30.22R
ALTOONA        CLEAR     56  26  31 NW16G22   30.20R
STATE COLLEGE  CLEAR     57  25  28 NW13G20   30.20R
WILLIAMSPORT   CLEAR     59  28  30 NW12      30.14R
SELINSGROVE    CLEAR     62  23  22 W9        30.14R
FT INDIANTOWN  CLEAR     65  22  20 W10G18    30.12R
CAPITAL CITY   CLEAR     66  24  20 NW13G24   30.13R
HARRISBURG     PTCLDY    67  25  20 NW17G28   30.12R
YORK           CLEAR     60  46  59 NW7       30.13R
$$

PAZ038>040-043-044-047-048-054-055-060>062-067>071-230200-
EASTERN PENNSYLVANIA

CITY           SKY/WX    TMP DP  RH WIND       PRES   REMARKS
SCRANTON       CLEAR     58  34  40 N8        30.11R
MOUNT POCONO   PTCLDY    53  33  46 N10       30.09R
ALLENTOWN      PTCLDY    61  34  36 NW3       30.07R
QUAKERTOWN*    PTCLDY    64  32  29 W6        30.08R
READING        CLEAR     66  20  17 W13       30.09R
LANCASTER      CLEAR     62  34  35 NW10      30.10R
COATESVILLE    CLEAR     64  34  32 W15G21    30.11R
POTTSTOWN      CLEAR     65  31  28 VRB3      30.09R
BLUE BELL      CLEAR     68  36  30 W5        30.07R
DOYLESTOWN     CLEAR     64  32  30 W8        30.06R
WILLOW GROVE   NOT AVBL
NORTH PHILA    CLEAR     69  33  26 W12       30.08R
PHILADELPHIA   PTCLDY    71  40  32 W12       30.08R
$$



USA.gov is the U.S. government's official web portal to all federal, state and local government web resources and services.